{"data":{"norad_id":51891,"intl_designator":"2022-022AR","name":"STARLINK-3549","alt_names":[],"object_type":"PAYLOAD","status":"ACTIVE","operator":null,"country":"US","launch_date":"2022-03-03","launch_site_code":"AFETR","launch_vehicle":null,"mission":null,"orbit_class":"UNKNOWN","rcs_meters":null,"size_class":null,"mass_kg":null,"dimensions":null,"purposes":["comms"],"wikipedia_slug":null,"has_3d_model":false,"image_url":null,"decayed_at":null,"tle_current":{"epoch":"2026-05-25T01:15:51.706656Z","epoch_age_seconds":70841,"freshness":"FRESH","line1":"1 51891U 22022AR  26145.05268179 -.00001832  00000+0 -96985-4 0  9994","line2":"2 51891  53.2134  16.3134 0001503  81.5941 278.5222 15.08851900234823","mean_motion":15.088519,"eccentricity":0.0001503,"inclination_deg":53.2134,"raan_deg":16.3134,"arg_perigee_deg":81.5941,"mean_anomaly_deg":278.5222,"bstar":-9.6985e-5,"rev_number":23482,"period_min":95.436801981692,"perigee_km":538.66726370828,"apogee_km":540.74676761939,"semimajor_km":6917.8440156638,"source":"CELESTRAK","updated_at":"2026-05-25T13:38:16.988666Z"}}}